Time,TemperatureF,DewpointF,PressureIn,WindDirection,WindDirectionDegrees,WindSpeedMPH,WindSpeedGustMPH,Humidity,HourlyPrecipIn,Conditions,Clouds,dailyrainin,SoftwareType,DateUTC
2013-06-09 00:02:00,53.2,44.1,29.90,SE,135,1.1,3.4,71,0.00,,,0.00,WUHU21623XXSP,2013-06-09 05:02:00,
2013-06-09 00:07:00,52.9,44.1,29.90,SE,135,0.0,3.4,72,0.00,,,0.00,WUHU21623XXSP,2013-06-09 05:07:00,
2013-06-09 00:12:00,52.3,44.0,29.90,SE,135,0.0,0.7,73,0.00,,,0.00,WUHU21623XXSP,2013-06-09 05:12:00,
2013-06-09 00:17:00,52.2,43.8,29.90,SSE,157,0.0,1.1,73,0.00,,,0.00,WUHU21623XXSP,2013-06-09 05:17:00,
2013-06-09 00:22:00,52.0,43.6,29.90,SSE,157,0.0,1.1,73,0.00,,,0.00,WUHU21623XXSP,2013-06-09 05:22:00,
2013-06-09 00:27:00,52.3,43.6,29.90,SSE,157,0.0,2.0,72,0.00,,,0.00,WUHU21623XXSP,2013-06-09 05:27:00,
2013-06-09 00:32:00,52.0,43.6,29.91,SSE,157,0.0,2.0,73,0.00,,,0.00,WUHU21623XXSP,2013-06-09 05:32:00,
2013-06-09 00:37:00,51.6,43.3,29.91,South,180,1.3,2.0,73,0.00,,,0.00,WUHU21623XXSP,2013-06-09 05:37:00,
2013-06-09 00:42:00,51.6,43.3,29.91,South,180,0.0,2.0,73,0.00,,,0.00,WUHU21623XXSP,2013-06-09 05:42:00,
2013-06-09 00:47:00,51.4,43.4,29.91,SSE,157,0.0,3.6,74,0.00,,,0.00,WUHU21623XXSP,2013-06-09 05:47:00,
2013-06-09 00:52:00,51.4,43.1,29.91,South,180,1.1,3.6,73,0.00,,,0.00,WUHU21623XXSP,2013-06-09 05:52:00,
2013-06-09 00:57:00,51.6,42.9,29.91,SSE,157,0.0,1.8,72,0.00,,,0.00,WUHU21623XXSP,2013-06-09 05:57:00,
2013-06-09 01:02:00,51.4,43.4,29.92,South,180,0.0,1.3,74,0.00,,,0.00,WUHU21623XXSP,2013-06-09 06:02:00,
2013-06-09 01:07:00,51.3,43.3,29.92,South,180,0.0,1.3,74,0.00,,,0.00,WUHU21623XXSP,2013-06-09 06:07:00,
2013-06-09 01:12:00,50.7,42.7,29.92,South,180,0.0,1.6,74,0.00,,,0.00,WUHU21623XXSP,2013-06-09 06:12:00,
2013-06-09 01:17:00,50.7,42.8,29.92,South,180,0.1,1.6,74,0.00,,,0.00,WUHU21623XXSP,2013-06-09 06:17:00,
2013-06-09 01:22:00,50.4,42.4,29.92,South,180,0.0,0.2,74,0.00,,,0.00,WUHU21623XXSP,2013-06-09 06:22:00,
2013-06-09 01:27:00,50.2,42.5,29.92,South,180,0.0,0.0,75,0.00,,,0.00,WUHU21623XXSP,2013-06-09 06:27:00,
2013-06-09 01:32:00,50.2,42.2,29.92,SSE,157,0.0,3.1,74,0.00,,,0.00,WUHU21623XXSP,2013-06-09 06:32:00,
2013-06-09 01:37:00,50.4,42.4,29.92,SSE,157,0.0,3.1,74,0.00,,,0.00,WUHU21623XXSP,2013-06-09 06:37:00,
2013-06-09 01:42:00,50.4,42.4,29.92,SSE,157,0.0,1.1,74,0.00,,,0.00,WUHU21623XXSP,2013-06-09 06:42:00,
2013-06-09 01:47:00,49.8,42.2,29.92,SSE,157,0.0,0.0,75,0.00,,,0.00,WUHU21623XXSP,2013-06-09 06:47:00,
2013-06-09 01:52:00,49.3,42.0,29.93,SSE,157,0.0,0.0,76,0.00,,,0.00,WUHU21623XXSP,2013-06-09 06:52:00,
2013-06-09 01:57:00,49.3,42.0,29.93,SSE,157,0.0,0.0,76,0.00,,,0.00,WUHU21623XXSP,2013-06-09 06:57:00,
2013-06-09 02:02:00,49.6,42.0,29.93,SSE,157,0.0,0.0,75,0.00,,,0.00,WUHU21623XXSP,2013-06-09 07:02:00,
2013-06-09 02:07:00,49.5,42.5,29.93,SSE,157,0.0,0.9,77,0.00,,,0.00,WUHU21623XXSP,2013-06-09 07:07:00,
2013-06-09 02:12:00,49.1,42.1,29.93,SSE,157,0.0,0.9,77,0.00,,,0.00,WUHU21623XXSP,2013-06-09 07:12:00,
2013-06-09 02:17:00,49.5,42.2,29.93,SSE,157,0.2,0.2,76,0.00,,,0.00,WUHU21623XXSP,2013-06-09 07:17:00,
2013-06-09 02:22:00,49.1,41.8,29.92,SSE,157,0.0,0.2,76,0.00,,,0.00,WUHU21623XXSP,2013-06-09 07:22:00,
2013-06-09 02:27:00,48.7,41.8,29.92,SSE,157,0.0,0.0,77,0.00,,,0.00,WUHU21623XXSP,2013-06-09 07:27:00,
2013-06-09 02:32:00,48.7,41.8,29.92,SSE,157,0.0,1.1,77,0.00,,,0.00,WUHU21623XXSP,2013-06-09 07:32:00,
2013-06-09 02:37:00,48.7,41.8,29.92,SSE,157,0.0,1.1,77,0.00,,,0.00,WUHU21623XXSP,2013-06-09 07:37:00,
2013-06-09 02:42:00,48.7,42.1,29.92,SSE,157,0.0,2.5,78,0.00,,,0.00,WUHU21623XXSP,2013-06-09 07:42:00,
2013-06-09 02:47:00,48.7,42.1,29.92,SSE,157,0.0,2.5,78,0.00,,,0.00,WUHU21623XXSP,2013-06-09 07:47:00,
2013-06-09 02:52:00,48.6,41.9,29.92,SSE,157,0.0,0.0,78,0.00,,,0.00,WUHU21623XXSP,2013-06-09 07:52:00,
2013-06-09 02:57:00,48.4,41.8,29.91,SSE,157,0.0,0.0,78,0.00,,,0.00,WUHU21623XXSP,2013-06-09 07:57:00,
2013-06-09 03:02:00,48.6,41.6,29.92,SSE,157,0.0,0.0,77,0.00,,,0.00,WUHU21623XXSP,2013-06-09 08:02:00,
2013-06-09 03:07:00,48.4,40.7,29.92,SSE,157,0.0,0.0,75,0.00,,,0.00,WUHU21623XXSP,2013-06-09 08:07:00,
2013-06-09 03:12:00,48.2,40.5,29.92,SSE,157,0.0,0.0,75,0.00,,,0.00,WUHU21623XXSP,2013-06-09 08:12:00,
2013-06-09 03:17:00,49.1,40.8,29.92,SSE,157,0.0,0.9,73,0.00,,,0.00,WUHU21623XXSP,2013-06-09 08:17:00,
2013-06-09 03:22:00,48.7,39.7,29.92,SE,135,0.0,0.9,71,0.00,,,0.00,WUHU21623XXSP,2013-06-09 08:22:00,
2013-06-09 03:27:00,48.7,40.4,29.92,SE,135,0.0,2.0,73,0.00,,,0.00,WUHU21623XXSP,2013-06-09 08:27:00,
2013-06-09 03:32:00,48.6,39.9,29.92,SSE,157,0.0,2.0,72,0.00,,,0.00,WUHU21623XXSP,2013-06-09 08:32:00,
2013-06-09 03:37:00,48.7,39.4,29.92,SSE,157,1.1,1.3,70,0.00,,,0.00,WUHU21623XXSP,2013-06-09 08:37:00,
2013-06-09 03:42:00,48.4,39.2,29.92,SSE,157,0.1,1.3,70,0.00,,,0.00,WUHU21623XXSP,2013-06-09 08:42:00,
2013-06-09 03:47:00,48.2,38.8,29.92,SSE,157,0.0,1.3,70,0.00,,,0.00,WUHU21623XXSP,2013-06-09 08:47:00,
2013-06-09 03:52:00,48.0,39.0,29.92,SSE,157,0.0,2.2,71,0.00,,,0.00,WUHU21623XXSP,2013-06-09 08:52:00,
2013-06-09 03:57:00,47.8,38.9,29.92,SSE,157,0.0,2.2,71,0.00,,,0.00,WUHU21623XXSP,2013-06-09 08:57:00,
2013-06-09 04:02:00,47.8,39.3,29.91,SSE,157,0.2,1.8,72,0.00,,,0.00,WUHU21623XXSP,2013-06-09 09:02:00,
2013-06-09 04:07:00,48.2,39.2,29.92,SSE,157,0.0,2.2,71,0.00,,,0.00,WUHU21623XXSP,2013-06-09 09:07:00,
2013-06-09 04:12:00,47.8,39.2,29.92,SSE,157,0.0,2.2,72,0.00,,,0.00,WUHU21623XXSP,2013-06-09 09:12:00,
2013-06-09 04:17:00,47.8,38.5,29.92,SSE,157,0.4,1.1,70,0.00,,,0.00,WUHU21623XXSP,2013-06-09 09:17:00,
2013-06-09 04:22:00,47.8,38.5,29.92,SSE,157,0.0,1.1,70,0.00,,,0.00,WUHU21623XXSP,2013-06-09 09:22:00,
2013-06-09 04:27:00,47.5,38.9,29.92,SSE,157,0.0,0.7,72,0.00,,,0.00,WUHU21623XXSP,2013-06-09 09:27:00,
2013-06-09 04:32:00,47.1,38.6,29.92,SSE,157,0.0,0.1,72,0.00,,,0.00,WUHU21623XXSP,2013-06-09 09:32:00,
2013-06-09 04:37:00,47.1,38.6,29.92,SSE,157,0.0,1.1,72,0.00,,,0.00,WUHU21623XXSP,2013-06-09 09:37:00,
2013-06-09 04:42:00,47.1,38.2,29.92,SSE,157,0.0,3.4,71,0.00,,,0.00,WUHU21623XXSP,2013-06-09 09:42:00,
2013-06-09 04:47:00,46.8,37.9,29.92,SSE,157,0.0,3.4,71,0.00,,,0.00,WUHU21623XXSP,2013-06-09 09:47:00,
2013-06-09 04:52:00,46.8,38.2,29.92,SSE,157,0.0,0.0,72,0.00,,,0.00,WUHU21623XXSP,2013-06-09 09:52:00,
2013-06-09 04:57:00,46.8,38.9,29.92,SSE,157,0.0,1.3,74,0.00,,,0.00,WUHU21623XXSP,2013-06-09 09:57:00,
2013-06-09 05:02:00,46.6,38.1,29.92,SSE,157,0.0,1.3,72,0.00,,,0.00,WUHU21623XXSP,2013-06-09 10:02:00,
2013-06-09 05:07:00,46.9,38.0,29.92,SSE,157,0.0,1.8,71,0.00,,,0.00,WUHU21623XXSP,2013-06-09 10:07:00,
2013-06-09 05:12:00,46.6,38.1,29.92,SSE,157,0.0,1.8,72,0.00,,,0.00,WUHU21623XXSP,2013-06-09 10:12:00,
2013-06-09 05:17:00,46.6,38.1,29.92,SSE,157,0.0,1.8,72,0.00,,,0.00,WUHU21623XXSP,2013-06-09 10:17:00,
2013-06-09 05:22:00,46.8,38.2,29.92,SSE,157,0.0,1.8,72,0.00,,,0.00,WUHU21623XXSP,2013-06-09 10:22:00,
2013-06-09 05:27:00,46.6,38.1,29.92,SSE,157,0.0,0.9,72,0.00,,,0.00,WUHU21623XXSP,2013-06-09 10:27:00,
2013-06-09 05:32:00,46.6,38.4,29.92,SSE,157,0.0,0.7,73,0.00,,,0.00,WUHU21623XXSP,2013-06-09 10:32:00,
2013-06-09 05:37:00,46.6,38.4,29.92,SSE,157,0.0,0.7,73,0.00,,,0.00,WUHU21623XXSP,2013-06-09 10:37:00,
2013-06-09 05:42:00,46.6,38.8,29.92,SSE,157,0.0,0.0,74,0.00,,,0.00,WUHU21623XXSP,2013-06-09 10:42:00,
2013-06-09 05:47:00,46.9,39.1,29.92,SSE,157,0.0,0.0,74,0.00,,,0.00,WUHU21623XXSP,2013-06-09 10:47:00,
2013-06-09 05:52:00,46.8,38.9,29.92,SSE,157,0.0,1.1,74,0.00,,,0.00,WUHU21623XXSP,2013-06-09 10:52:00,
2013-06-09 05:57:00,46.9,39.8,29.92,SSE,157,0.0,1.1,76,0.00,,,0.00,WUHU21623XXSP,2013-06-09 10:57:00,
2013-06-09 06:02:00,47.1,39.9,29.92,SSE,157,0.0,1.8,76,0.00,,,0.00,WUHU21623XXSP,2013-06-09 11:02:00,
2013-06-09 06:07:00,47.7,41.1,29.92,SSE,157,0.0,1.8,78,0.00,,,0.00,WUHU21623XXSP,2013-06-09 11:07:00,
2013-06-09 06:12:00,48.0,40.4,29.92,ESE,112,0.0,3.6,75,0.00,,,0.00,WUHU21623XXSP,2013-06-09 11:12:00,
2013-06-09 06:17:00,48.2,40.9,29.92,ESE,112,0.0,3.6,76,0.00,,,0.00,WUHU21623XXSP,2013-06-09 11:17:00,
2013-06-09 06:22:00,48.6,40.6,29.92,ESE,112,0.9,0.9,74,0.00,,,0.00,WUHU21623XXSP,2013-06-09 11:22:00,
2013-06-09 06:27:00,48.9,40.6,29.92,ESE,112,0.0,1.1,73,0.00,,,0.00,WUHU21623XXSP,2013-06-09 11:27:00,
2013-06-09 06:32:00,49.3,40.6,29.93,SSE,157,0.0,1.3,72,0.00,,,0.00,WUHU21623XXSP,2013-06-09 11:32:00,
2013-06-09 06:37:00,49.8,41.8,29.92,SE,135,0.9,1.6,74,0.00,,,0.00,WUHU21623XXSP,2013-06-09 11:37:00,
2013-06-09 06:42:00,50.2,42.5,29.93,NE,45,0.0,1.6,75,0.00,,,0.00,WUHU21623XXSP,2013-06-09 11:42:00,
2013-06-09 06:47:00,50.5,42.5,29.92,ENE,67,0.0,2.9,74,0.00,,,0.00,WUHU21623XXSP,2013-06-09 11:47:00,
2013-06-09 06:52:00,50.7,42.7,29.93,South,180,0.0,2.9,74,0.00,,,0.00,WUHU21623XXSP,2013-06-09 11:52:00,
2013-06-09 06:57:00,51.4,43.1,29.92,SSE,157,0.0,2.7,73,0.00,,,0.00,WUHU21623XXSP,2013-06-09 11:57:00,
2013-06-09 07:02:00,51.4,42.8,29.92,ESE,112,0.0,2.7,72,0.00,,,0.00,WUHU21623XXSP,2013-06-09 12:02:00,
2013-06-09 07:07:00,51.8,43.5,29.92,ESE,112,0.0,1.6,73,0.00,,,0.00,WUHU21623XXSP,2013-06-09 12:07:00,
2013-06-09 07:12:00,52.2,43.8,29.92,ENE,67,0.0,3.1,73,0.00,,,0.00,WUHU21623XXSP,2013-06-09 12:12:00,
2013-06-09 07:17:00,52.5,44.1,29.92,ENE,67,0.0,3.1,73,0.00,,,0.00,WUHU21623XXSP,2013-06-09 12:17:00,
2013-06-09 07:22:00,52.9,43.9,29.93,East,92,0.3,2.5,71,0.00,,,0.00,WUHU21623XXSP,2013-06-09 12:22:00,
2013-06-09 07:27:00,53.2,44.4,29.93,ESE,112,0.0,2.2,72,0.00,,,0.00,WUHU21623XXSP,2013-06-09 12:27:00,
2013-06-09 07:32:00,53.6,44.4,29.92,SE,135,0.9,2.2,71,0.00,,,0.00,WUHU21623XXSP,2013-06-09 12:32:00,
2013-06-09 07:37:00,54.1,44.6,29.93,ESE,112,0.2,2.7,70,0.00,,,0.00,WUHU21623XXSP,2013-06-09 12:37:00,
2013-06-09 07:42:00,54.5,45.3,29.92,SW,225,0.0,2.7,71,0.00,,,0.00,WUHU21623XXSP,2013-06-09 12:42:00,
2013-06-09 07:47:00,54.9,44.9,29.92,ENE,67,1.1,4.9,69,0.00,,,0.00,WUHU21623XXSP,2013-06-09 12:47:00,
2013-06-09 07:52:00,55.0,45.1,29.92,East,90,0.0,4.9,69,0.00,,,0.00,WUHU21623XXSP,2013-06-09 12:52:00,
2013-06-09 07:57:00,55.4,45.4,29.92,ENE,67,0.7,6.9,69,0.00,,,0.00,WUHU21623XXSP,2013-06-09 12:57:00,
2013-06-09 08:02:00,55.9,45.1,29.92,SE,135,0.7,6.9,70,0.00,,,0.00,WUHU21623XXSP,2013-06-09 13:02:00,
2013-06-09 08:07:00,56.5,45.6,29.92,SSW,202,0.0,4.5,67,0.00,,,0.00,WUHU21623XXSP,2013-06-09 13:07:00,
2013-06-09 08:12:00,57.0,45.7,29.92,SSE,157,2.2,6.9,66,0.00,,,0.00,WUHU21623XXSP,2013-06-09 13:12:00,
2013-06-09 08:17:00,57.4,46.5,29.92,NE,45,0.0,6.9,67,0.00,,,0.00,WUHU21623XXSP,2013-06-09 13:17:00,
2013-06-09 08:22:00,57.7,46.0,29.92,NW,315,0.0,5.4,65,0.00,,,0.00,WUHU21623XXSP,2013-06-09 13:22:00,
2013-06-09 08:27:00,58.1,46.8,29.92,SE,135,0.0,4.3,66,0.00,,,0.00,WUHU21623XXSP,2013-06-09 13:27:00,
2013-06-09 08:32:00,58.5,47.9,29.92,ESE,112,0.0,4.3,68,0.00,,,0.00,WUHU21623XXSP,2013-06-09 13:32:00,
2013-06-09 08:37:00,58.8,47.0,29.92,ESE,112,1.8,4.3,65,0.00,,,0.00,WUHU21623XXSP,2013-06-09 13:37:00,
2013-06-09 08:42:00,58.8,47.4,29.92,SSE,157,0.0,4.3,66,0.00,,,0.00,WUHU21623XXSP,2013-06-09 13:42:00,
2013-06-09 08:47:00,58.8,47.0,29.92,SW,225,0.0,3.4,65,0.00,,,0.00,WUHU21623XXSP,2013-06-09 13:47:00,
2013-06-09 08:52:00,59.7,47.9,29.92,ENE,67,0.9,4.3,65,0.00,,,0.00,WUHU21623XXSP,2013-06-09 13:52:00,
2013-06-09 08:57:00,60.4,47.8,29.91,NE,45,3.6,6.7,63,0.00,,,0.00,WUHU21623XXSP,2013-06-09 13:57:00,
2013-06-09 09:02:00,61.0,47.9,29.91,SSE,157,4.0,6.7,62,0.00,,,0.00,WUHU21623XXSP,2013-06-09 14:02:00,
2013-06-09 09:07:00,61.5,48.0,29.91,South,180,1.8,5.6,61,0.00,,,0.00,WUHU21623XXSP,2013-06-09 14:07:00,
2013-06-09 09:12:00,61.9,48.3,29.91,SE,135,2.0,5.4,61,0.00,,,0.00,WUHU21623XXSP,2013-06-09 14:12:00,
2013-06-09 09:17:00,61.7,48.2,29.91,SE,135,4.3,8.3,61,0.00,,,0.00,WUHU21623XXSP,2013-06-09 14:17:00,
2013-06-09 09:22:00,61.9,48.3,29.91,ESE,112,0.0,8.3,61,0.00,,,0.00,WUHU21623XXSP,2013-06-09 14:22:00,
2013-06-09 09:27:00,62.2,48.7,29.91,South,180,0.0,8.3,61,0.00,,,0.00,WUHU21623XXSP,2013-06-09 14:27:00,
2013-06-09 09:32:00,62.4,48.4,29.92,ENE,67,0.9,8.3,60,0.00,,,0.00,WUHU21623XXSP,2013-06-09 14:32:00,
2013-06-09 09:37:00,62.2,48.7,29.91,South,180,0.0,7.6,61,0.00,,,0.00,WUHU21623XXSP,2013-06-09 14:37:00,
2013-06-09 09:42:00,62.4,48.4,29.92,SSE,157,6.9,7.2,60,0.00,,,0.00,WUHU21623XXSP,2013-06-09 14:42:00,
2013-06-09 09:47:00,63.0,48.9,29.92,SSE,157,2.2,6.9,60,0.00,,,0.00,WUHU21623XXSP,2013-06-09 14:47:00,
2013-06-09 09:53:00,63.7,49.5,29.92,ESE,112,1.6,8.1,60,0.00,,,0.00,WUHU21623XXSP,2013-06-09 14:53:00,
2013-06-09 09:58:00,64.2,49.0,29.91,SSE,157,6.3,8.1,58,0.00,,,0.00,WUHU21623XXSP,2013-06-09 14:58:00,
2013-06-09 10:02:00,64.9,49.7,29.91,ENE,67,6.9,8.5,58,0.00,,,0.00,WUHU21623XXSP,2013-06-09 15:02:00,
2013-06-09 10:08:00,65.5,47.9,29.91,SSE,157,6.0,8.5,53,0.00,,,0.00,WUHU21623XXSP,2013-06-09 15:08:00,
2013-06-09 10:13:00,65.1,48.0,29.91,SE,135,1.3,8.1,54,0.00,,,0.00,WUHU21623XXSP,2013-06-09 15:13:00,
2013-06-09 10:18:00,64.6,47.9,29.91,SSW,202,9.8,9.8,55,0.00,,,0.00,WUHU21623XXSP,2013-06-09 15:18:00,
2013-06-09 10:23:00,64.9,48.3,29.91,SE,135,4.7,10.5,55,0.00,,,0.00,WUHU21623XXSP,2013-06-09 15:23:00,
2013-06-09 10:28:00,64.9,48.3,29.91,SE,135,6.3,11.0,55,0.00,,,0.00,WUHU21623XXSP,2013-06-09 15:28:00,
2013-06-09 10:33:00,65.3,48.7,29.91,South,180,0.7,11.0,55,0.00,,,0.00,WUHU21623XXSP,2013-06-09 15:33:00,
2013-06-09 10:38:00,65.8,49.7,29.91,SE,135,0.0,9.6,56,0.00,,,0.00,WUHU21623XXSP,2013-06-09 15:38:00,
2013-06-09 10:43:00,66.0,47.9,29.91,ESE,112,0.4,9.6,52,0.00,,,0.00,WUHU21623XXSP,2013-06-09 15:43:00,
2013-06-09 10:48:00,66.2,49.5,29.91,ESE,112,6.3,8.3,55,0.00,,,0.00,WUHU21623XXSP,2013-06-09 15:48:00,
2013-06-09 10:53:00,66.4,48.7,29.90,SE,135,1.3,8.3,53,0.00,,,0.00,WUHU21623XXSP,2013-06-09 15:53:00,
2013-06-09 10:58:00,65.8,48.2,29.91,ESE,112,0.0,8.1,53,0.00,,,0.00,WUHU21623XXSP,2013-06-09 15:58:00,
2013-06-09 11:03:00,66.0,49.4,29.90,ENE,67,0.0,8.1,55,0.00,,,0.00,WUHU21623XXSP,2013-06-09 16:03:00,
2013-06-09 11:08:00,66.2,48.1,29.90,East,90,0.0,10.3,52,0.00,,,0.00,WUHU21623XXSP,2013-06-09 16:08:00,
2013-06-09 11:13:00,66.0,48.4,29.90,SSW,202,0.0,10.3,53,0.00,,,0.00,WUHU21623XXSP,2013-06-09 16:13:00,
2013-06-09 11:18:00,65.8,47.2,29.91,SE,135,4.0,8.3,51,0.00,,,0.00,WUHU21623XXSP,2013-06-09 16:18:00,
2013-06-09 11:23:00,65.5,47.4,29.90,SSE,157,0.0,8.7,52,0.00,,,0.00,WUHU21623XXSP,2013-06-09 16:23:00,
2013-06-09 11:28:00,65.7,47.1,29.90,SSE,157,6.7,8.7,51,0.00,,,0.00,WUHU21623XXSP,2013-06-09 16:28:00,
2013-06-09 11:33:00,65.8,47.2,29.90,SSE,157,0.0,8.5,51,0.00,,,0.00,WUHU21623XXSP,2013-06-09 16:33:00,
2013-06-09 11:38:00,66.0,46.3,29.91,South,180,8.7,8.7,49,0.00,,,0.00,WUHU21623XXSP,2013-06-09 16:38:00,
2013-06-09 11:39:00,66.2,47.6,29.90,SW,225,3.8,8.7,51,0.00,,,0.00,WUHU21623XXSP,2013-06-09 16:39:00,
2013-06-09 11:46:00,66.4,46.7,29.91,ESE,112,0.0,8.7,49,0.00,,,0.00,WUHU21623XXSP,2013-06-09 16:46:00,
2013-06-09 11:51:00,67.6,48.9,29.91,SE,135,3.1,8.3,51,0.00,,,0.00,WUHU21623XXSP,2013-06-09 16:51:00,
2013-06-09 11:58:00,67.5,46.5,29.91,SSE,157,4.9,6.7,47,0.00,,,0.00,WUHU21623XXSP,2013-06-09 16:58:00,
2013-06-09 12:03:00,66.7,47.6,29.91,SSE,157,0.7,6.5,50,0.00,,,0.00,WUHU21623XXSP,2013-06-09 17:03:00,
2013-06-09 12:08:00,66.6,46.9,29.91,SE,135,4.7,8.9,49,0.00,,,0.00,WUHU21623XXSP,2013-06-09 17:08:00,
2013-06-09 12:23:00,65.8,46.8,29.91,SSE,157,2.2,12.3,50,0.00,,,0.00,WUHU21623XXSP,2013-06-09 17:23:00,
2013-06-09 12:28:00,65.5,45.8,29.91,ESE,112,0.0,8.3,49,0.00,,,0.00,WUHU21623XXSP,2013-06-09 17:28:00,
2013-06-09 12:33:00,65.7,46.0,29.91,SE,135,6.5,8.7,49,0.00,,,0.00,WUHU21623XXSP,2013-06-09 17:33:00,
2013-06-09 12:38:00,65.5,46.4,29.91,ENE,67,3.4,8.7,50,0.00,,,0.00,WUHU21623XXSP,2013-06-09 17:38:00,
2013-06-09 12:43:00,65.7,46.6,29.91,SSE,157,0.0,6.0,50,0.00,,,0.00,WUHU21623XXSP,2013-06-09 17:43:00,
2013-06-09 12:48:00,65.3,45.6,29.91,SSE,157,8.1,8.1,49,0.00,,,0.00,WUHU21623XXSP,2013-06-09 17:48:00,
2013-06-09 12:53:00,64.8,45.7,29.91,SE,135,2.0,10.1,50,0.00,,,0.00,WUHU21623XXSP,2013-06-09 17:53:00,
2013-06-09 12:58:00,64.6,46.5,29.91,ENE,67,0.0,10.1,52,0.00,,,0.00,WUHU21623XXSP,2013-06-09 17:58:00,
2013-06-09 13:03:00,64.6,47.0,29.91,ENE,67,5.4,8.1,53,0.00,,,0.00,WUHU21623XXSP,2013-06-09 18:03:00,
2013-06-09 13:08:00,64.6,46.5,29.91,East,90,1.8,8.1,52,0.00,,,0.00,WUHU21623XXSP,2013-06-09 18:08:00,
2013-06-09 13:13:00,64.2,45.6,29.91,SSW,202,2.2,8.3,51,0.00,,,0.00,WUHU21623XXSP,2013-06-09 18:13:00,
2013-06-09 13:18:00,64.0,46.0,29.91,South,180,4.0,8.3,52,0.00,,,0.00,WUHU21623XXSP,2013-06-09 18:18:00,
2013-06-09 13:23:00,63.7,46.1,29.91,SSE,157,6.7,8.3,53,0.00,,,0.00,WUHU21623XXSP,2013-06-09 18:23:00,
2013-06-09 13:28:00,63.5,46.0,29.92,SSW,202,3.4,8.1,53,0.00,,,0.00,WUHU21623XXSP,2013-06-09 18:28:00,
2013-06-09 13:33:00,63.3,46.8,29.92,South,180,0.0,7.6,55,0.00,,,0.00,WUHU21623XXSP,2013-06-09 18:33:00,
2013-06-09 13:38:00,63.1,47.7,29.92,NNW,337,3.3,8.1,57,0.00,,,0.00,WUHU21623XXSP,2013-06-09 18:38:00,
2013-06-09 13:43:00,62.4,49.6,29.92,SSE,157,1.8,8.3,63,0.00,,,0.00,WUHU21623XXSP,2013-06-09 18:43:00,
2013-06-09 13:48:00,61.5,48.8,29.92,ESE,112,2.9,8.3,63,0.00,,,0.00,WUHU21623XXSP,2013-06-09 18:48:00,
2013-06-09 13:53:00,60.6,50.1,29.92,SSE,157,1.6,6.0,68,0.00,,,0.00,WUHU21623XXSP,2013-06-09 18:53:00,
2013-06-09 13:58:00,59.7,50.4,29.93,SSE,163,2.3,6.7,71,0.00,,,0.00,WUHU21623XXSP,2013-06-09 18:58:00,
2013-06-09 14:03:00,58.8,51.0,29.93,SSE,167,2.4,6.7,75,0.00,,,0.00,WUHU21623XXSP,2013-06-09 19:03:00,
2013-06-09 14:08:00,58.3,50.5,29.93,South,169,2.6,6.0,75,0.00,,,0.00,WUHU21623XXSP,2013-06-09 19:08:00,
2013-06-09 14:13:00,58.1,50.9,29.93,SSE,157,0.0,6.0,77,0.00,,,0.00,WUHU21623XXSP,2013-06-09 19:13:00,
2013-06-09 14:18:00,58.1,50.9,29.93,South,180,1.1,4.0,77,0.00,,,0.00,WUHU21623XXSP,2013-06-09 19:18:00,
2013-06-09 14:23:00,57.9,51.8,29.93,SSE,168,1.2,3.4,80,0.00,,,0.00,WUHU21623XXSP,2013-06-09 19:23:00,
2013-06-09 14:28:00,57.7,51.3,29.93,South,180,0.0,2.5,79,0.00,,,0.00,WUHU21623XXSP,2013-06-09 19:28:00,
2013-06-09 14:33:00,57.4,51.9,29.93,South,180,0.0,3.4,82,0.00,,,0.00,WUHU21623XXSP,2013-06-09 19:33:00,
2013-06-09 14:38:00,57.4,51.3,29.92,South,175,0.3,3.4,80,0.00,,,0.00,WUHU21623XXSP,2013-06-09 19:38:00,
2013-06-09 14:43:00,57.0,51.5,29.92,NE,45,0.9,4.5,82,0.00,,,0.00,WUHU21623XXSP,2013-06-09 19:43:00,
2013-06-09 14:48:00,56.8,51.4,29.92,South,180,0.0,6.5,82,0.02,,,0.02,WUHU21623XXSP,2013-06-09 19:48:00,
2013-06-09 14:53:00,56.5,51.0,29.92,ENE,67,0.0,6.5,82,0.02,,,0.02,WUHU21623XXSP,2013-06-09 19:53:00,
2013-06-09 14:58:00,56.3,51.5,29.91,SSW,202,0.0,4.5,84,0.02,,,0.02,WUHU21623XXSP,2013-06-09 19:58:00,
2013-06-09 15:03:00,55.9,50.8,29.91,ENE,67,0.0,4.0,83,0.02,,,0.02,WUHU21623XXSP,2013-06-09 20:03:00,
2013-06-09 15:08:00,55.9,51.1,29.91,SE,135,5.1,5.8,84,0.02,,,0.02,WUHU21623XXSP,2013-06-09 20:08:00,
2013-06-09 15:13:00,56.1,51.6,29.91,East,90,0.7,6.0,85,0.04,,,0.04,WUHU21623XXSP,2013-06-09 20:13:00,
2013-06-09 15:18:00,55.9,51.4,29.91,NE,45,1.8,6.0,85,0.04,,,0.04,WUHU21623XXSP,2013-06-09 20:18:00,
2013-06-09 15:23:00,55.8,51.3,29.91,NNE,22,0.9,4.0,85,0.04,,,0.04,WUHU21623XXSP,2013-06-09 20:23:00,
2013-06-09 15:28:00,55.6,51.1,29.90,SSE,157,5.8,5.8,85,0.06,,,0.06,WUHU21623XXSP,2013-06-09 20:28:00,
2013-06-09 15:33:00,55.6,51.1,29.90,NE,45,3.1,5.8,85,0.06,,,0.06,WUHU21623XXSP,2013-06-09 20:33:00,
2013-06-09 15:38:00,55.2,50.7,29.90,ENE,67,0.0,5.8,85,0.06,,,0.06,WUHU21623XXSP,2013-06-09 20:38:00,
2013-06-09 15:43:00,55.0,50.6,29.90,South,180,0.0,5.8,85,0.09,,,0.09,WUHU21623XXSP,2013-06-09 20:43:00,
2013-06-09 15:48:00,55.2,51.0,29.90,NE,45,0.0,3.8,86,0.07,,,0.09,WUHU21623XXSP,2013-06-09 20:48:00,
2013-06-09 15:53:00,55.0,50.9,29.90,NE,45,0.0,3.8,86,0.07,,,0.09,WUHU21623XXSP,2013-06-09 20:53:00,
2013-06-09 15:58:00,54.9,50.7,29.90,SE,135,0.0,3.4,86,0.07,,,0.09,WUHU21623XXSP,2013-06-09 20:58:00,
2013-06-09 16:03:00,54.7,50.5,29.89,ESE,112,0.0,2.9,86,0.07,,,0.09,WUHU21623XXSP,2013-06-09 21:03:00,
2013-06-09 16:08:00,54.5,50.4,29.89,SE,135,0.0,5.4,86,0.07,,,0.11,WUHU21623XXSP,2013-06-09 21:08:00,
2013-06-09 16:13:00,54.7,50.5,29.89,SE,135,0.0,5.4,86,0.07,,,0.11,WUHU21623XXSP,2013-06-09 21:13:00,
2013-06-09 16:18:00,54.5,50.4,29.89,North,0,0.0,7.8,86,0.07,,,0.11,WUHU21623XXSP,2013-06-09 21:18:00,
2013-06-09 16:23:00,54.3,50.2,29.89,ESE,112,2.5,7.8,86,0.07,,,0.11,WUHU21623XXSP,2013-06-09 21:23:00,
2013-06-09 16:28:00,54.3,50.2,29.89,NE,45,0.0,5.1,86,0.05,,,0.11,WUHU21623XXSP,2013-06-09 21:28:00,
2013-06-09 16:33:00,54.3,50.2,29.89,ENE,67,3.8,5.1,86,0.05,,,0.11,WUHU21623XXSP,2013-06-09 21:33:00,
2013-06-09 16:38:00,54.1,50.0,29.89,NE,45,2.9,5.1,86,0.07,,,0.13,WUHU21623XXSP,2013-06-09 21:38:00,
2013-06-09 16:43:00,54.1,50.0,29.88,NE,45,0.0,5.1,86,0.04,,,0.13,WUHU21623XXSP,2013-06-09 21:43:00,
2013-06-09 16:48:00,54.1,50.0,29.88,ESE,112,0.0,4.9,86,0.04,,,0.13,WUHU21623XXSP,2013-06-09 21:48:00,
2013-06-09 16:53:00,54.3,50.2,29.88,NNE,22,1.3,4.5,86,0.04,,,0.13,WUHU21623XXSP,2013-06-09 21:53:00,
2013-06-09 16:58:00,54.1,50.0,29.88,NNE,22,3.8,5.8,86,0.04,,,0.13,WUHU21623XXSP,2013-06-09 21:58:00,
2013-06-09 17:03:00,54.0,49.8,29.88,ENE,67,2.9,6.0,86,0.04,,,0.13,WUHU21623XXSP,2013-06-09 22:03:00,
2013-06-09 17:08:00,54.1,50.0,29.87,NNE,22,0.0,6.0,86,0.02,,,0.13,WUHU21623XXSP,2013-06-09 22:08:00,
2013-06-09 17:13:00,54.1,50.3,29.87,NE,45,0.0,4.0,87,0.02,,,0.13,WUHU21623XXSP,2013-06-09 22:13:00,
2013-06-09 17:18:00,54.1,50.0,29.86,ESE,112,1.1,5.8,86,0.02,,,0.13,WUHU21623XXSP,2013-06-09 22:18:00,
2013-06-09 17:23:00,53.8,50.0,29.86,NE,45,0.0,6.0,87,0.02,,,0.13,WUHU21623XXSP,2013-06-09 22:23:00,
2013-06-09 17:28:00,53.8,49.7,29.86,ESE,112,0.0,6.0,86,0.02,,,0.13,WUHU21623XXSP,2013-06-09 22:28:00,
2013-06-09 17:33:00,53.8,49.7,29.86,SE,135,0.0,4.3,86,0.02,,,0.13,WUHU21623XXSP,2013-06-09 22:33:00,
2013-06-09 17:38:00,53.6,49.5,29.86,NE,45,1.6,5.6,86,0.00,,,0.13,WUHU21623XXSP,2013-06-09 22:38:00,
2013-06-09 17:43:00,53.8,50.0,29.86,NNE,22,3.4,5.6,87,0.02,,,0.15,WUHU21623XXSP,2013-06-09 22:43:00,
2013-06-09 17:48:00,53.4,49.3,29.85,NE,45,0.0,7.8,86,0.02,,,0.15,WUHU21623XXSP,2013-06-09 22:48:00,
2013-06-09 17:53:00,53.4,49.6,29.85,ENE,67,2.5,7.8,87,0.02,,,0.15,WUHU21623XXSP,2013-06-09 22:53:00,
2013-06-09 17:58:00,53.4,49.6,29.85,East,90,0.0,4.9,87,0.02,,,0.15,WUHU21623XXSP,2013-06-09 22:58:00,
2013-06-09 18:03:00,53.4,49.6,29.85,ENE,67,0.0,5.1,87,0.02,,,0.15,WUHU21623XXSP,2013-06-09 23:03:00,
2013-06-09 18:08:00,53.4,49.6,29.85,ENE,67,0.0,5.1,87,0.02,,,0.15,WUHU21623XXSP,2013-06-09 23:08:00,
2013-06-09 18:13:00,53.4,49.6,29.84,NE,45,0.0,6.3,87,0.04,,,0.17,WUHU21623XXSP,2013-06-09 23:13:00,
2013-06-09 18:18:00,53.4,49.6,29.84,NE,52,1.3,6.3,87,0.04,,,0.17,WUHU21623XXSP,2013-06-09 23:18:00,
2013-06-09 18:23:00,53.4,49.6,29.84,NNE,22,0.0,2.9,87,0.04,,,0.17,WUHU21623XXSP,2013-06-09 23:23:00,
2013-06-09 18:28:00,53.4,49.6,29.84,SSW,202,0.8,4.5,87,0.04,,,0.17,WUHU21623XXSP,2013-06-09 23:28:00,
2013-06-09 18:33:00,53.4,49.6,29.84,NE,45,0.7,5.6,87,0.04,,,0.17,WUHU21623XXSP,2013-06-09 23:33:00,
2013-06-09 18:38:00,53.2,49.4,29.84,East,91,1.1,5.6,87,0.04,,,0.17,WUHU21623XXSP,2013-06-09 23:38:00,
2013-06-09 18:43:00,53.4,49.6,29.84,ENE,67,0.0,4.5,87,0.02,,,0.17,WUHU21623XXSP,2013-06-09 23:43:00,
2013-06-09 18:48:00,53.2,49.4,29.84,NE,45,0.0,4.5,87,0.02,,,0.17,WUHU21623XXSP,2013-06-09 23:48:00,
2013-06-09 18:53:00,53.2,49.4,29.83,East,90,2.2,6.7,87,0.02,,,0.17,WUHU21623XXSP,2013-06-09 23:53:00,
2013-06-09 18:58:00,53.2,49.4,29.83,ENE,67,4.0,6.7,87,0.02,,,0.17,WUHU21623XXSP,2013-06-09 23:58:00,
2013-06-09 19:03:00,53.2,49.4,29.83,ENE,61,1.3,4.7,87,0.02,,,0.17,WUHU21623XXSP,2013-06-10 00:03:00,
2013-06-09 19:08:00,53.2,49.4,29.83,SE,135,0.0,4.5,87,0.00,,,0.17,WUHU21623XXSP,2013-06-10 00:08:00,
2013-06-09 19:13:00,53.2,49.4,29.83,WNW,292,0.9,3.4,87,0.00,,,0.17,WUHU21623XXSP,2013-06-10 00:13:00,
2013-06-09 19:18:00,53.4,49.6,29.83,SSE,157,0.0,3.4,87,0.00,,,0.17,WUHU21623XXSP,2013-06-10 00:18:00,
2013-06-09 19:23:00,53.2,49.4,29.83,East,90,5.4,5.4,87,0.00,,,0.17,WUHU21623XXSP,2013-06-10 00:23:00,
2013-06-09 19:28:00,53.2,49.4,29.83,NNW,337,0.7,5.4,87,0.00,,,0.17,WUHU21623XXSP,2013-06-10 00:28:00,
2013-06-09 19:33:00,53.2,49.4,29.83,NNE,22,0.0,4.7,87,0.00,,,0.17,WUHU21623XXSP,2013-06-10 00:33:00,
2013-06-09 19:38:00,53.4,49.6,29.83,NNW,337,0.9,4.7,87,0.00,,,0.17,WUHU21623XXSP,2013-06-10 00:38:00,
2013-06-09 19:43:00,53.4,49.6,29.83,ENE,67,0.0,6.3,87,0.00,,,0.17,WUHU21623XXSP,2013-06-10 00:43:00,
2013-06-09 19:48:00,53.4,49.6,29.82,ENE,67,0.0,6.3,87,0.00,,,0.17,WUHU21623XXSP,2013-06-10 00:48:00,
2013-06-09 19:53:00,53.2,49.4,29.82,SE,135,3.1,3.1,87,0.00,,,0.17,WUHU21623XXSP,2013-06-10 00:53:00,
2013-06-09 19:58:00,53.4,49.6,29.82,WNW,292,0.5,3.1,87,0.00,,,0.17,WUHU21623XXSP,2013-06-10 00:58:00,
2013-06-09 20:03:00,53.2,49.4,29.82,ENE,67,0.0,5.4,87,0.02,,,0.19,WUHU21623XXSP,2013-06-10 01:03:00,
2013-06-09 20:08:00,53.4,49.6,29.81,ENE,67,0.7,5.4,87,0.02,,,0.19,WUHU21623XXSP,2013-06-10 01:08:00,
2013-06-09 20:13:00,53.2,49.4,29.82,NE,42,0.7,3.6,87,0.02,,,0.19,WUHU21623XXSP,2013-06-10 01:13:00,
2013-06-09 20:18:00,53.2,49.4,29.81,NNE,32,0.8,8.5,87,0.02,,,0.19,WUHU21623XXSP,2013-06-10 01:18:00,
2013-06-09 20:23:00,53.2,49.4,29.81,NNE,26,0.9,8.5,87,0.02,,,0.19,WUHU21623XXSP,2013-06-10 01:23:00,
2013-06-09 20:28:00,53.4,49.6,29.81,WNW,292,0.9,2.5,87,0.02,,,0.19,WUHU21623XXSP,2013-06-10 01:28:00,
2013-06-09 20:33:00,53.4,49.6,29.81,SSW,202,0.7,2.0,87,0.02,,,0.19,WUHU21623XXSP,2013-06-10 01:33:00,
2013-06-09 20:38:00,53.4,49.6,29.81,NW,317,0.5,0.9,87,0.02,,,0.19,WUHU21623XXSP,2013-06-10 01:38:00,
2013-06-09 20:43:00,53.4,49.6,29.81,WNW,292,0.6,3.6,87,0.02,,,0.19,WUHU21623XXSP,2013-06-10 01:43:00,
2013-06-09 20:48:00,53.2,49.4,29.80,North,11,0.8,4.7,87,0.02,,,0.19,WUHU21623XXSP,2013-06-10 01:48:00,
2013-06-09 20:53:00,53.4,49.6,29.80,ENE,67,0.0,8.7,87,0.02,,,0.19,WUHU21623XXSP,2013-06-10 01:53:00,
2013-06-09 20:58:00,53.4,49.6,29.80,WNW,292,0.9,8.7,87,0.02,,,0.19,WUHU21623XXSP,2013-06-10 01:58:00,
2013-06-09 21:03:00,53.2,49.7,29.80,WNW,292,0.5,1.0,88,0.02,,,0.21,WUHU21623XXSP,2013-06-10 02:03:00,
2013-06-09 21:08:00,53.2,49.7,29.80,WNW,293,0.4,2.5,88,0.02,,,0.21,WUHU21623XXSP,2013-06-10 02:08:00,
2013-06-09 21:13:00,53.2,49.7,29.80,SE,135,0.0,2.7,88,0.02,,,0.21,WUHU21623XXSP,2013-06-10 02:13:00,
2013-06-09 21:18:00,53.4,49.9,29.80,SSE,158,0.4,2.7,88,0.04,,,0.23,WUHU21623XXSP,2013-06-10 02:18:00,
2013-06-09 21:23:00,53.4,49.9,29.80,NE,45,0.0,3.4,88,0.04,,,0.23,WUHU21623XXSP,2013-06-10 02:23:00,
2013-06-09 21:28:00,53.2,49.7,29.80,NNW,337,0.5,3.4,88,0.04,,,0.23,WUHU21623XXSP,2013-06-10 02:28:00,
2013-06-09 21:33:00,53.4,49.9,29.80,North,8,0.5,2.0,88,0.04,,,0.23,WUHU21623XXSP,2013-06-10 02:33:00,
2013-06-09 21:38:00,53.4,49.9,29.80,NNE,22,0.0,6.9,88,0.04,,,0.23,WUHU21623XXSP,2013-06-10 02:38:00,
2013-06-09 21:43:00,53.4,49.9,29.80,NE,45,0.0,6.9,88,0.04,,,0.23,WUHU21623XXSP,2013-06-10 02:43:00,
2013-06-09 21:48:00,53.4,49.9,29.80,NE,45,0.7,2.5,88,0.04,,,0.23,WUHU21623XXSP,2013-06-10 02:48:00,
2013-06-09 21:53:00,53.4,49.9,29.80,NE,45,0.0,2.5,88,0.04,,,0.23,WUHU21623XXSP,2013-06-10 02:53:00,
2013-06-09 21:58:00,53.4,49.9,29.80,NE,45,0.0,2.2,88,0.04,,,0.23,WUHU21623XXSP,2013-06-10 02:58:00,
2013-06-09 22:03:00,53.4,49.9,29.80,NE,45,0.0,2.5,88,0.04,,,0.25,WUHU21623XXSP,2013-06-10 03:03:00,
2013-06-09 22:08:00,53.4,49.9,29.80,South,180,0.0,2.5,88,0.06,,,0.27,WUHU21623XXSP,2013-06-10 03:08:00,
2013-06-09 22:13:00,53.4,49.9,29.80,NE,45,0.0,3.8,88,0.08,,,0.29,WUHU21623XXSP,2013-06-10 03:13:00,
2013-06-09 22:18:00,53.4,49.9,29.80,ENE,67,0.0,3.8,88,0.08,,,0.31,WUHU21623XXSP,2013-06-10 03:18:00,
2013-06-09 22:23:00,53.6,50.1,29.80,NE,45,0.0,2.9,88,0.08,,,0.31,WUHU21623XXSP,2013-06-10 03:23:00,
2013-06-09 22:28:00,53.8,50.3,29.80,NE,45,0.0,2.9,88,0.08,,,0.31,WUHU21623XXSP,2013-06-10 03:28:00,
2013-06-09 22:33:00,53.8,50.3,29.80,NNW,337,0.0,1.6,88,0.08,,,0.31,WUHU21623XXSP,2013-06-10 03:33:00,
2013-06-09 22:38:00,53.8,50.0,29.80,NNW,337,0.0,1.6,87,0.08,,,0.31,WUHU21623XXSP,2013-06-10 03:38:00,
2013-06-09 22:44:00,53.8,50.0,29.80,NNW,337,3.6,3.6,87,0.08,,,0.31,WUHU21623XXSP,2013-06-10 03:44:00,
2013-06-09 22:49:00,53.8,50.3,29.80,NNW,337,0.0,3.6,88,0.08,,,0.31,WUHU21623XXSP,2013-06-10 03:49:00,
2013-06-09 22:54:00,53.8,50.0,29.80,NNW,337,0.0,3.6,87,0.08,,,0.31,WUHU21623XXSP,2013-06-10 03:54:00,
2013-06-09 22:59:00,53.8,50.3,29.80,NNW,337,0.0,0.2,88,0.06,,,0.31,WUHU21623XXSP,2013-06-10 03:59:00,
2013-06-09 23:01:00,53.8,50.3,29.81,NW,315,0.0,0.0,88,0.06,,,0.31,WUHU21623XXSP,2013-06-10 04:01:00,
2013-06-09 23:02:00,53.8,50.3,29.81,NW,315,0.0,0.0,88,0.06,,,0.31,WUHU21623XXSP,2013-06-10 04:02:00,
2013-06-09 23:07:00,53.8,50.3,29.81,NW,315,0.0,0.0,88,0.04,,,0.31,WUHU21623XXSP,2013-06-10 04:07:00,
2013-06-09 23:12:00,53.8,50.3,29.80,NW,315,0.0,0.0,88,0.02,,,0.31,WUHU21623XXSP,2013-06-10 04:12:00,
2013-06-09 23:17:00,53.8,50.3,29.80,NW,315,0.0,0.0,88,0.02,,,0.31,WUHU21623XXSP,2013-06-10 04:17:00,
2013-06-09 23:22:00,53.8,50.3,29.80,NW,315,0.0,2.0,88,0.00,,,0.31,WUHU21623XXSP,2013-06-10 04:22:00,
2013-06-09 23:27:00,53.8,50.3,29.80,NW,315,0.0,2.0,88,0.00,,,0.31,WUHU21623XXSP,2013-06-10 04:27:00,
2013-06-09 23:32:00,53.8,50.3,29.80,NW,315,0.0,0.0,88,0.00,,,0.31,WUHU21623XXSP,2013-06-10 04:32:00,
2013-06-09 23:37:00,53.8,50.3,29.80,NW,315,0.0,0.0,88,0.00,,,0.31,WUHU21623XXSP,2013-06-10 04:37:00,
2013-06-09 23:42:00,53.8,50.3,29.80,NW,315,0.0,0.0,88,0.00,,,0.31,WUHU21623XXSP,2013-06-10 04:42:00,
2013-06-09 23:47:00,53.8,50.3,29.80,NW,315,0.0,0.0,88,0.00,,,0.31,WUHU21623XXSP,2013-06-10 04:47:00,
2013-06-09 23:52:00,53.8,50.3,29.80,NW,315,0.0,0.0,88,0.00,,,0.31,WUHU21623XXSP,2013-06-10 04:52:00,
2013-06-09 23:57:00,53.8,50.3,29.79,NW,315,0.0,0.0,88,0.00,,,0.31,WUHU21623XXSP,2013-06-10 04:57:00,